QPF
0.00 0.00 0.00 0.00 0.00 0.00 0.00 0.00 0.00 0.00 0.00 0.00 0.00 0.00 0.00 0.00 0.00 0.00 0.00 0.00 0.00 0.00 0.00 0.00 0.00 0.00 0.00 0.00 0.00 0.00 0.00 0.00 0.00 0.00 0.00 0.00 0.00 0.00 0.00 0.00 0.00 0.00 0.00 0.00 0.00
0.00 0.00 0.00 0.00 0.00 0.00 0.00 0.00 0.00 0.00 0.00 0.00 0.00 0.00 0.00 0.00 0.00 0.00 0.00 0.00 0.00 0.00 0.00 0.00 0.00 0.00 0.00 0.00 0.00 0.00 0.00 0.00 0.00 0.00 0.00 0.01 0.02 0.02 0.00 0.00 0.00 0.00 0.00 0.00 0.00
0.00 0.00 0.00 0.00 0.00 0.00 0.00 0.00 0.00 0.00 0.00 0.00 0.00 0.00 0.00 0.00 0.00 0.00 0.00 0.00 0.00 0.00 0.00 0.00 0.00 0.00 0.00 0.00 0.00 0.00 0.00 0.00 0.00 0.00 0.00 0.01 0.01 0.02 0.01 0.00 0.00 0.00 0.00 0.00 0.00
0.00 0.00 0.00 0.00 0.00 0.00 0.00 0.00 0.00 0.00 0.00 0.00 0.00 0.00 0.00 0.00 0.00 0.00 0.00 0.00 0.00 0.00 0.00 0.00 0.00 0.00 0.00 0.00 0.00 0.00 0.00 0.00 0.00 0.00 0.00 0.03 0.01 0.02 0.00 0.00 0.00 0.00 0.00 0.00 0.00
0.00 0.00 0.00 0.00 0.00 0.00 0.00 0.00 0.00 0.00 0.00 0.00 0.00 0.00 0.00 0.00 0.00 0.00 0.00 0.00 0.00 0.00 0.00 0.00 0.00 0.00 0.00 0.00 0.00 0.00 0.00 0.00 0.00 0.00 0.00 0.01 0.01 0.02 0.01 0.00 0.00 0.00 0.00 0.00 0.00
0.00 0.00 0.00 0.00 0.00 0.00 0.00 0.00 0.00 0.00 0.00 0.00 0.00 0.00 0.00 0.00 0.00 0.00 0.00 0.00 0.00 0.00 0.00 0.00 0.00 0.00 0.00 0.00 0.00 0.00 0.00 0.00 0.00 0.00 0.00 0.00 0.01 0.02 0.00 0.00 0.00 0.00 0.00 0.00 0.00
0.00 0.00 0.00 0.00 0.00 0.00 0.00 0.00 0.00 0.00 0.00 0.00 0.00 0.00 0.00 0.00 0.00 0.00 0.00 0.00 0.00 0.00 0.00 0.00 0.00 0.00 0.00 0.00 0.00 0.00 0.00 0.00 0.00 0.00 0.00 0.00 0.00 0.00 0.00 0.03 0.02 0.00 0.00 0.00 0.00
0.00 0.00 0.00 0.00 0.00 0.00 0.00 0.00 0.00 0.00 0.00 0.00 0.00 0.00 0.00 0.00 0.00 0.00 0.00 0.00 0.00 0.00 0.00 0.00 0.00 0.00 0.00 0.00 0.00 0.00 0.00 0.00 0.00 0.00 0.00 0.00 0.00 0.00 0.00 0.01 0.02 0.01 0.00 0.00 0.00
0.00 0.00 0.00 0.00 0.00 0.00 0.00 0.00 0.00 0.00 0.00 0.00 0.00 0.00 0.00 0.00 0.00 0.00 0.00 0.00 0.00 0.00 0.00 0.00 0.00 0.00 0.00 0.00 0.00 0.00 0.00 0.00 0.00 0.00 0.00 0.00 0.00 0.00 0.00 0.03 0.05 0.02 0.00 0.00 0.00
0.00 0.00 0.00 0.00 0.00 0.00 0.00 0.00 0.00 0.00 0.00 0.00 0.00 0.00 0.00 0.00 0.00 0.00 0.00 0.00 0.00 0.00 0.00 0.00 0.00 0.00 0.00 0.00 0.00 0.00 0.00 0.00 0.00 0.00 0.00 0.00 0.00 0.00 0.00 0.00 0.04 0.02 0.01 0.00 0.00
0.00 0.00 0.00 0.00 0.00 0.00 0.00 0.00 0.00 0.00 0.00 0.00 0.00 0.00 0.00 0.00 0.00 0.00 0.00 0.00 0.00 0.00 0.00 0.00 0.00 0.00 0.00 0.00 0.00 0.00 0.00 0.00 0.00 0.00 0.00 0.00 0.00 0.00 0.00 0.00 0.00 0.09 0.04 0.00 0.00
0.00 0.00 0.00 0.00 0.00 0.00 0.00 0.00 0.00 0.00 0.00 0.00 0.00 0.00 0.00 0.00 0.00 0.00 0.00 0.00 0.00 0.00 0.00 0.00 0.00 0.00 0.00 0.00 0.00 0.00 0.00 0.00 0.00 0.00 0.00 0.00 0.00 0.00 0.00 0.00 0.01 0.05 0.05 0.00 0.00
0.00 0.00 0.00 0.00 0.00 0.00 0.00 0.00 0.00 0.00 0.00 0.00 0.00 0.00 0.00 0.00 0.00 0.00 0.00 0.00 0.00 0.00 0.00 0.00 0.00 0.00 0.00 0.00 0.00 0.00 0.00 0.00 0.00 0.00 0.00 0.00 0.00 0.00 0.00 0.00 0.00 0.00 0.00 0.01 0.00
0.00 0.00 0.00 0.00 0.00 0.00 0.00 0.00 0.00 0.00 0.00 0.00 0.00 0.00 0.00 0.00 0.00 0.00 0.00 0.00 0.00 0.00 0.00 0.00 0.00 0.00 0.00 0.00 0.00 0.00 0.00 0.00 0.00 0.00 0.00 0.00 0.00 0.00 0.00 0.00 0.00 0.00 0.00 0.00 0.00
0.00 0.00 0.00 0.00 0.00 0.00 0.00 0.00 0.00 0.00 0.00 0.00 0.00 0.00 0.00 0.00 0.00 0.00 0.00 0.00 0.00 0.00 0.00 0.00 0.00 0.00 0.00 0.00 0.00 0.00 0.00 0.00 0.00 0.00 0.00 0.00 0.00 0.00 0.00 0.00 0.00 0.00 0.00 0.00 0.00
0.00 0.00 0.00 0.00 0.00 0.00 0.00 0.00 0.00 0.00 0.00 0.00 0.00 0.00 0.00 0.00 0.00 0.00 0.00 0.00 0.00 0.00 0.00 0.00 0.00 0.00 0.00 0.00 0.00 0.00 0.00 0.00 0.00 0.00 0.00 0.00 0.00 0.00 0.00 0.00 0.00 0.01 0.00 0.00 0.00
0.00 0.00 0.00 0.00 0.00 0.00 0.00 0.00 0.00 0.00 0.00 0.00 0.00 0.00 0.00 0.00 0.00 0.00 0.00 0.00 0.00 0.00 0.00 0.00 0.00 0.00 0.00 0.00 0.00 0.00 0.00 0.00 0.00 0.00 0.00 0.00 0.00 0.00 0.00 0.00 0.00 0.00 0.00 0.00 0.00
0.00 0.00 0.00 0.00 0.00 0.00 0.00 0.00 0.00 0.00 0.00 0.00 0.00 0.00 0.00 0.00 0.00 0.00 0.00 0.00 0.00 0.00 0.00 0.00 0.00 0.00 0.00 0.00 0.00 0.00 0.00 0.00 0.00 0.00 0.00 0.00 0.00 0.00 0.00 0.00 0.00 0.00 0.00 0.00 0.00
0.00 0.00 0.00 0.00 0.00 0.00 0.00 0.00 0.00 0.00 0.00 0.00 0.00 0.00 0.00 0.00 0.00 0.00 0.00 0.00 0.00 0.00 0.00 0.00 0.00 0.00 0.00 0.00 0.00 0.00 0.00 0.00 0.00 0.00 0.00 0.00 0.00 0.00 0.00 0.00 0.00 0.00 0.00 0.00 0.00
0.00 0.00 0.00 0.00 0.00 0.00 0.00 0.00 0.00 0.00 0.00 0.00 0.00 0.00 0.00 0.00 0.00 0.00 0.00 0.00 0.00 0.00 0.00 0.00 0.00 0.00 0.00 0.00 0.00 0.00 0.00 0.00 0.00 0.00 0.00 0.00 0.00 0.00 0.00 0.00 0.00 0.00 0.00 0.00 0.00
0.00 0.00 0.00 0.00 0.00 0.00 0.00 0.00 0.00 0.00 0.00 0.00 0.00 0.00 0.00 0.00 0.00 0.00 0.00 0.00 0.00 0.00 0.00 0.00 0.00 0.00 0.00 0.00 0.00 0.00 0.00 0.00 0.00 0.00 0.00 0.00 0.00 0.00 0.00 0.01 0.04 0.07 0.03 0.00 0.00
0.00 0.00 0.00 0.00 0.00 0.00 0.00 0.00 0.00 0.00 0.00 0.00 0.00 0.00 0.00 0.00 0.00 0.00 0.00 0.00 0.00 0.00 0.00 0.00 0.00 0.00 0.00 0.00 0.00 0.00 0.00 0.00 0.00 0.00 0.00 0.00 0.00 0.00 0.00 0.01 0.03 0.12 0.06 0.00 0.00
0.00 0.00 0.00 0.00 0.00 0.00 0.00 0.00 0.00 0.00 0.00 0.00 0.00 0.00 0.00 0.00 0.00 0.00 0.00 0.00 0.00 0.00 0.00 0.00 0.00 0.00 0.00 0.00 0.00 0.00 0.00 0.00 0.00 0.00 0.00 0.00 0.00 0.00 0.01 0.02 0.03 0.07 0.04 0.00 0.00
0.00 0.00 0.00 0.00 0.00 0.00 0.00 0.00 0.00 0.00 0.00 0.00 0.00 0.00 0.00 0.00 0.00 0.00 0.00 0.00 0.00 0.00 0.00 0.00 0.00 0.00 0.00 0.00 0.00 0.00 0.00 0.00 0.00 0.00 0.00 0.00 0.00 0.00 0.00 0.05 0.05 0.05 0.01 0.00 0.00
0.00 0.00 0.00 0.00 0.00 0.00 0.00 0.00 0.00 0.00 0.00 0.00 0.00 0.00 0.00 0.00 0.00 0.00 0.00 0.00 0.00 0.00 0.00 0.00 0.00 0.00 0.00 0.00 0.00 0.00 0.00 0.00 0.00 0.00 0.00 0.01 0.00 0.00 0.00 0.03 0.04 0.07 0.05 0.01 0.00
0.00 0.00 0.00 0.00 0.00 0.00 0.00 0.00 0.00 0.00 0.00 0.00 0.00 0.00 0.00 0.00 0.00 0.00 0.00 0.00 0.00 0.00 0.00 0.00 0.00 0.00 0.00 0.00 0.00 0.00 0.00 0.00 0.00 0.00 0.00 0.00 0.00 0.00 0.00 0.00 0.00 0.01 0.01 0.00 0.00
0.00 0.00 0.00 0.00 0.00 0.00 0.00 0.00 0.00 0.00 0.00 0.00 0.00 0.00 0.00 0.00 0.00 0.00 0.00 0.00 0.00 0.00 0.00 0.00 0.00 0.00 0.00 0.00 0.00 0.00 0.00 0.00 0.00 0.00 0.00 0.00 0.00 0.00 0.00 0.01 0.00 0.00 0.00 0.00 0.00
MSLP
1018.30 1017.79 1017.26 1016.85 1016.37 1015.99 1015.49 1014.99 1014.46 1013.92 1013.43 1012.98 1012.55 1012.30 1011.90 1011.34 1009.91 1009.71 1008.37 1006.38 1006.12 1006.15 1006.58 1006.13 1006.22 1005.79 1005.62 1005.66 1005.71 1006.89 1008.03 1007.91 1006.72 1006.33 1004.54 1003.91 1004.46 1004.66 1004.81 1005.49 1005.99 1006.29 1007.26 1008.70 1009.42
1018.58 1018.13 1017.63 1017.14 1016.59 1016.05 1015.47 1014.96 1014.47 1013.82 1013.28 1012.80 1012.49 1012.28 1012.06 1011.48 1010.38 1008.21 1006.20 1005.88 1005.91 1006.16 1006.20 1005.74 1005.28 1005.05 1005.49 1005.29 1005.20 1005.66 1007.10 1006.61 1005.32 1006.08 1005.45 1005.16 1006.61 1007.05 1005.58 1006.34 1007.08 1007.49 1008.23 1008.81 1009.55
1018.73 1018.23 1017.75 1017.25 1016.76 1016.21 1015.78 1015.16 1014.53 1013.85 1013.23 1012.78 1012.34 1011.98 1011.78 1011.61 1010.20 1006.43 1005.36 1005.75 1005.97 1006.20 1006.04 1005.67 1005.09 1004.87 1005.10 1005.32 1005.33 1004.97 1005.58 1004.82 1004.78 1004.95 1004.99 1005.63 1007.09 1008.40 1007.35 1006.70 1007.05 1007.70 1008.36 1008.90 1009.71
1018.60 1018.10 1017.61 1017.17 1016.60 1016.08 1015.46 1014.94 1014.35 1013.67 1012.98 1012.47 1012.20 1011.68 1011.29 1011.05 1008.52 1005.35 1005.24 1005.59 1005.88 1005.99 1005.82 1005.35 1004.93 1004.90 1004.73 1004.72 1004.91 1005.02 1004.07 1003.70 1003.13 1003.86 1004.89 1006.69 1008.58 1007.82 1007.55 1006.20 1006.43 1007.41 1008.08 1008.76 1009.59
1018.55 1018.16 1017.61 1017.07 1016.41 1015.76 1015.08 1014.49 1013.84 1013.29 1012.64 1012.22 1012.00 1011.43 1010.30 1009.68 1006.46 1004.86 1005.16 1005.56 1005.70 1005.71 1005.39 1005.03 1004.76 1004.46 1004.18 1003.78 1004.34 1004.63 1003.39 1002.73 1002.45 1002.86 1004.73 1005.31 1006.48 1008.74 1007.78 1006.76 1007.09 1007.50 1007.99 1008.62 1009.23
1018.56 1018.11 1017.46 1016.84 1016.20 1015.47 1014.83 1014.10 1013.50 1012.88 1012.23 1011.96 1011.70 1011.25 1010.63 1008.14 1004.47 1004.37 1004.80 1005.32 1004.92 1005.00 1004.58 1004.30 1004.02 1003.58 1003.40 1003.33 1003.30 1002.85 1002.77 1001.47 1001.57 1002.25 1004.02 1005.18 1006.52 1005.58 1006.44 1007.13 1007.79 1008.11 1008.58 1008.67 1009.10
1018.53 1018.01 1017.38 1016.62 1016.02 1015.15 1014.46 1013.81 1013.14 1012.45 1011.84 1011.73 1011.58 1010.89 1009.47 1006.30 1003.92 1004.08 1004.41 1004.53 1003.93 1004.06 1004.01 1003.29 1003.15 1003.20 1003.16 1003.09 1002.37 1002.32 1002.23 1001.72 1001.63 1002.21 1004.66 1004.34 1006.31 1005.54 1005.24 1006.32 1007.48 1008.24 1008.37 1008.68 1008.90
1018.48 1017.91 1017.18 1016.44 1015.70 1014.85 1013.99 1013.27 1012.41 1011.76 1011.34 1011.32 1011.13 1010.51 1008.20 1004.28 1003.41 1003.84 1003.90 1003.73 1003.33 1003.10 1003.15 1002.90 1002.76 1002.96 1003.34 1003.19 1002.68 1002.71 1002.53 1002.81 1002.41 1002.24 1003.72 1004.14 1005.90 1005.69 1005.97 1006.34 1006.77 1007.81 1007.76 1008.24 1008.60
1018.46 1017.72 1017.08 1016.22 1015.43 1014.60 1013.64 1012.43 1011.15 1010.79 1010.73 1010.95 1010.86 1010.03 1006.71 1003.71 1003.51 1003.23 1003.29 1003.47 1002.97 1002.91 1002.83 1002.63 1002.85 1003.49 1003.69 1003.98 1003.85 1003.49 1004.04 1004.08 1003.47 1002.73 1003.00 1003.66 1005.36 1005.11 1005.93 1006.01 1006.35 1007.26 1007.98 1007.99 1008.26
1018.29 1017.66 1016.92 1016.08 1015.40 1014.59 1013.22 1011.15 1010.13 1010.25 1010.36 1010.19 1009.67 1009.22 1005.76 1003.58 1002.78 1002.75 1002.75 1002.91 1002.90 1002.81 1003.08 1003.04 1003.34 1003.81 1004.26 1004.40 1004.73 1004.66 1004.90 1004.76 1004.08 1003.22 1003.36 1003.63 1003.93 1005.16 1004.86 1005.56 1005.40 1006.68 1008.18 1008.01 1008.47
1018.22 1017.53 1016.72 1015.93 1015.28 1014.80 1013.49 1011.15 1010.20 1010.11 1009.35 1008.33 1007.45 1005.99 1004.12 1002.96 1002.40 1002.70 1002.64 1002.70 1003.00 1003.40 1003.67 1003.38 1004.05 1003.99 1004.06 1003.78 1003.93 1004.06 1004.19 1004.84 1004.63 1002.58 1003.78 1003.41 1003.38 1003.64 1004.56 1005.41 1006.13 1008.61 1008.41 1008.28 1008.59
1018.20 1017.52 1016.67 1015.74 1014.80 1014.38 1014.61 1012.46 1009.66 1009.12 1008.03 1006.85 1005.82 1004.91 1003.74 1002.99 1002.58 1002.46 1002.54 1003.07 1003.28 1003.85 1003.80 1003.85 1003.75 1003.33 1003.15 1002.98 1003.08 1003.81 1004.22 1004.85 1004.30 1003.46 1004.11 1003.21 1003.13 1002.67 1004.50 1006.34 1008.05 1007.98 1007.07 1006.17 1007.30
1018.06 1017.36 1016.49 1015.42 1014.30 1013.49 1012.50 1010.32 1008.65 1008.23 1007.87 1005.39 1004.26 1003.67 1002.68 1002.53 1002.39 1002.19 1002.29 1002.61 1003.14 1003.63 1003.60 1003.58 1002.72 1002.24 1002.29 1002.25 1002.35 1002.77 1003.51 1003.64 1003.30 1003.54 1003.53 1003.47 1003.40 1004.14 1005.08 1003.59 1004.77 1005.99 1005.18 1005.38 1006.14
1018.00 1017.34 1016.66 1015.47 1014.17 1012.77 1010.64 1008.60 1008.06 1008.00 1007.72 1004.50 1002.69 1001.71 1002.06 1001.90 1001.85 1001.71 1001.67 1002.25 1002.71 1003.01 1003.08 1002.78 1001.78 1001.52 1001.36 1001.34 1001.44 1001.94 1001.91 1002.14 1002.54 1003.91 1003.74 1002.92 1004.59 1004.75 1004.64 1004.51 1004.82 1005.28 1005.46 1004.71 1005.26
1017.81 1017.36 1016.72 1016.97 1015.30 1013.16 1010.13 1008.60 1008.29 1008.35 1007.16 1002.15 1000.19 999.80 1000.57 1001.52 1000.93 1001.23 1001.18 1001.70 1002.16 1002.56 1002.65 1002.24 1001.61 1001.19 1000.90 1000.74 1000.90 1001.40 1001.43 1002.05 1002.28 1002.98 1003.07 1003.39 1004.56 1005.30 1004.67 1004.43 1003.61 1003.52 1003.84 1004.63 1004.46
1017.51 1017.20 1016.76 1015.27 1015.25 1011.85 1010.22 1009.37 1008.79 1008.69 1005.86 1002.01 1000.49 1000.31 1000.96 1001.20 1001.17 1000.98 1001.27 1001.33 1001.57 1002.32 1002.25 1002.06 1001.06 1000.99 1000.54 1000.41 1000.67 1001.30 1001.84 1002.38 1002.92 1003.94 1004.73 1004.79 1005.14 1005.09 1004.41 1003.50 1003.06 1003.15 1002.82 1003.02 1004.47
1017.20 1016.68 1016.85 1015.58 1012.84 1010.55 1010.27 1009.67 1009.45 1007.58 1004.41 1002.13 1001.22 1000.73 1001.02 1001.31 1001.34 1001.31 1001.48 1001.72 1002.27 1002.66 1002.91 1002.25 1001.34 1000.66 1000.38 1000.53 1000.67 1001.37 1002.42 1003.67 1004.93 1005.51 1005.78 1004.98 1004.71 1004.14 1002.91 1002.72 1002.33 1002.61 1002.24 1003.22 1004.58
1016.52 1015.67 1014.43 1013.44 1011.88 1011.08 1010.88 1010.53 1009.01 1005.98 1004.25 1001.73 1001.50 1001.18 1000.79 1000.99 1001.18 1001.29 1001.51 1001.88 1002.11 1002.64 1003.06 1002.90 1001.92 1000.80 1000.45 1000.58 1001.11 1001.71 1002.68 1004.02 1005.33 1006.28 1005.96 1005.35 1004.99 1003.71 1002.89 1002.99 1002.51 1002.11 1002.30 1003.51 1005.92
1015.82 1013.69 1013.01 1011.06 1011.56 1011.76 1011.48 1010.33 1007.67 1005.61 1003.48 1002.66 1001.82 1001.37 1000.73 1000.64 1000.91 1001.14 1001.28 1001.53 1001.61 1002.01 1002.87 1002.52 1001.76 1000.40 1000.08 1000.11 1000.74 1001.53 1002.14 1002.85 1004.85 1005.51 1006.52 1005.83 1005.37 1004.88 1004.05 1004.82 1003.81 1002.95 1002.87 1003.78 1005.43
1016.38 1013.78 1010.90 1009.38 1010.17 1010.99 1011.06 1009.36 1007.02 1005.05 1003.64 1002.90 1002.66 1001.88 1001.28 1001.05 1001.07 1000.96 1000.97 1000.64 1000.80 1000.92 1001.48 1001.83 1002.14 1000.82 999.81 999.72 1000.17 1000.98 1001.83 1003.09 1004.65 1006.24 1007.02 1006.62 1006.48 1005.97 1006.05 1005.96 1004.88 1005.35 1004.04 1004.02 1004.73
1015.91 1012.77 1008.23 1008.48 1009.49 1010.43 1010.00 1008.43 1006.62 1004.98 1004.12 1003.34 1002.99 1002.77 1002.59 1002.29 1001.93 1001.26 1000.29 999.94 999.96 1000.19 1000.64 1001.44 1002.07 1001.14 1000.71 1000.15 1000.48 1000.99 1001.64 1002.88 1004.26 1005.61 1006.76 1007.36 1007.01 1005.91 1006.43 1006.32 1005.82 1007.33 1006.76 1004.22 1004.74
1014.68 1011.58 1008.34 1008.46 1009.59 1009.45 1008.91 1007.61 1006.15 1004.61 1003.80 1003.57 1003.42 1003.40 1003.37 1003.24 1002.84 1001.86 1000.34 999.49 999.34 999.40 1000.36 1000.83 1001.69 1002.00 1001.38 1000.55 1000.31 1000.38 1001.29 1002.32 1004.31 1005.54 1006.49 1006.95 1006.15 1006.07 1008.79 1008.67 1008.46 1007.22 1008.89 1004.80 1004.34
1014.96 1011.24 1008.35 1008.35 1008.88 1008.76 1007.97 1006.93 1005.76 1004.69 1003.90 1003.79 1003.73 1003.66 1003.68 1003.83 1003.66 1002.40 1001.32 1000.11 999.75 999.62 1000.82 1001.17 1001.73 1002.41 1002.11 1001.47 1000.47 1000.43 1000.86 1001.71 1003.03 1004.24 1005.68 1006.81 1007.15 1008.80 1009.78 1010.34 1010.49 1010.91 1009.92 1005.57 1004.97
1015.68 1011.47 1009.09 1008.59 1008.40 1008.42 1007.88 1006.46 1005.23 1004.38 1004.23 1004.27 1004.29 1004.26 1004.05 1004.02 1003.87 1003.30 1002.32 1001.20 1000.71 1000.70 1000.92 1001.35 1002.43 1003.32 1003.07 1002.29 1001.48 1001.79 1001.11 1001.29 1002.80 1004.23 1005.15 1005.58 1007.39 1009.28 1009.91 1010.20 1010.78 1010.39 1006.93 1005.84 1006.26
1014.91 1011.27 1009.65 1008.87 1008.52 1008.28 1007.59 1006.43 1005.20 1004.32 1004.43 1004.58 1004.73 1004.85 1004.82 1004.97 1004.76 1004.03 1003.38 1002.55 1001.93 1001.81 1001.34 1001.86 1003.02 1003.26 1003.02 1002.17 1001.72 1001.45 1001.35 1001.41 1002.03 1003.09 1004.47 1005.58 1006.36 1008.35 1008.26 1008.10 1009.92 1006.84 1006.03 1006.35 1006.60
1014.23 1011.73 1009.99 1008.84 1007.73 1007.44 1007.12 1006.47 1005.79 1004.87 1004.78 1004.83 1005.08 1005.03 1005.07 1005.30 1005.22 1004.91 1004.38 1004.14 1003.69 1003.25 1003.15 1002.95 1003.65 1003.62 1003.68 1002.82 1002.25 1001.65 1001.08 1001.37 1001.78 1002.41 1003.96 1005.31 1005.94 1006.54 1007.25 1006.40 1006.53 1006.09 1006.88 1007.25 1007.36
1013.36 1011.93 1011.18 1009.23 1008.13 1007.42 1006.96 1006.47 1005.91 1005.46 1005.31 1005.14 1005.29 1005.40 1005.28 1005.61 1005.35 1005.11 1004.74 1004.52 1004.53 1004.41 1004.52 1004.44 1004.48 1004.74 1004.57 1003.70 1003.04 1002.31 1001.38 1000.97 1001.32 1001.83 1002.31 1004.51 1005.15 1006.08 1006.68 1006.12 1006.22 1006.83 1006.97 1006.46 1006.16
Thickness
5758 5765 5772 5776 5781 5785 5792 5797 5802 5808 5813 5819 5823 5826 5830 5836 5850 5853 5852 5875 5881 5885 5884 5885 5881 5881 5881 5871 5877 5859 5812 5801 5826 5817 5848 5866 5854 5870 5872 5852 5851 5852 5842 5834 5834
5752 5759 5766 5771 5777 5782 5789 5794 5799 5806 5812 5817 5822 5824 5827 5833 5844 5853 5881 5883 5884 5883 5879 5875 5871 5877 5855 5864 5870 5849 5811 5824 5852 5839 5839 5851 5833 5832 5853 5842 5835 5835 5840 5840 5835
5747 5754 5761 5767 5772 5777 5783 5790 5797 5803 5810 5815 5820 5824 5827 5830 5836 5859 5885 5883 5883 5882 5881 5881 5881 5875 5851 5858 5860 5858 5827 5856 5858 5863 5862 5851 5831 5819 5830 5831 5838 5829 5833 5836 5829
5744 5752 5759 5764 5770 5776 5783 5789 5795 5802 5809 5814 5818 5824 5828 5832 5816 5876 5886 5884 5882 5882 5878 5874 5871 5857 5849 5842 5860 5842 5865 5871 5880 5878 5873 5834 5825 5814 5832 5849 5859 5850 5846 5839 5829
5740 5746 5754 5761 5769 5776 5783 5789 5796 5802 5808 5813 5817 5823 5833 5826 5844 5884 5884 5883 5882 5879 5871 5866 5858 5857 5843 5856 5857 5842 5862 5880 5890 5890 5865 5862 5840 5822 5834 5856 5858 5855 5848 5839 5833
5734 5741 5750 5759 5767 5775 5782 5789 5795 5802 5808 5812 5816 5821 5823 5811 5884 5886 5884 5880 5882 5876 5873 5874 5865 5874 5862 5862 5859 5872 5874 5895 5900 5895 5870 5853 5843 5860 5859 5861 5850 5846 5838 5841 5836
5728 5736 5745 5755 5763 5773 5780 5787 5794 5801 5807 5810 5812 5820 5820 5827 5885 5885 5883 5879 5887 5881 5869 5884 5884 5870 5871 5856 5883 5879 5867 5884 5894 5889 5855 5870 5838 5852 5871 5863 5849 5843 5840 5840 5837
5723 5731 5741 5751 5760 5771 5780 5788 5796 5802 5807 5809 5812 5817 5809 5875 5885 5879 5882 5879 5890 5893 5886 5891 5892 5876 5868 5873 5869 5856 5859 5837 5874 5887 5871 5861 5811 5850 5860 5851 5851 5840 5843 5838 5836
5718 5727 5736 5747 5757 5767 5778 5790 5802 5805 5807 5806 5809 5809 5810 5877 5861 5878 5881 5865 5877 5883 5886 5893 5883 5862 5859 5836 5823 5836 5803 5817 5837 5875 5869 5858 5823 5857 5857 5859 5852 5845 5835 5838 5834
5713 5722 5732 5742 5752 5762 5776 5795 5804 5803 5805 5807 5811 5795 5830 5838 5866 5874 5882 5876 5865 5867 5860 5859 5851 5830 5831 5820 5780 5803 5802 5815 5822 5857 5861 5851 5845 5849 5861 5859 5858 5848 5833 5834 5833
5707 5717 5728 5738 5747 5755 5769 5786 5789 5787 5799 5797 5804 5816 5837 5860 5875 5862 5873 5864 5861 5847 5817 5840 5812 5800 5821 5837 5840 5832 5825 5818 5825 5869 5848 5847 5848 5859 5857 5853 5842 5812 5822 5836 5835
5699 5709 5721 5733 5745 5752 5752 5764 5787 5791 5775 5811 5818 5826 5843 5855 5835 5851 5869 5836 5832 5808 5826 5816 5800 5833 5849 5853 5845 5834 5822 5815 5835 5856 5844 5849 5850 5872 5853 5839 5822 5818 5835 5851 5844
5692 5703 5716 5729 5743 5754 5763 5775 5800 5800 5767 5801 5822 5823 5836 5846 5830 5837 5854 5842 5824 5811 5816 5803 5826 5854 5850 5845 5838 5841 5814 5825 5829 5844 5852 5844 5844 5845 5845 5866 5852 5848 5858 5856 5850
5684 5695 5706 5721 5736 5751 5761 5791 5797 5799 5737 5785 5809 5829 5834 5842 5824 5858 5862 5844 5829 5812 5821 5819 5849 5846 5844 5839 5847 5822 5859 5856 5849 5820 5796 5857 5790 5827 5840 5846 5851 5852 5850 5851 5851
5677 5686 5698 5701 5719 5734 5766 5788 5791 5778 5698 5814 5825 5863 5847 5822 5837 5837 5865 5844 5817 5819 5825 5812 5831 5832 5831 5841 5854 5832 5861 5851 5853 5834 5839 5833 5801 5817 5832 5830 5848 5861 5861 5850 5857
5671 5679 5689 5706 5710 5740 5760 5771 5770 5721 5706 5794 5822 5817 5812 5821 5827 5840 5837 5852 5849 5823 5828 5825 5857 5847 5843 5856 5857 5860 5847 5841 5842 5821 5779 5814 5805 5798 5809 5831 5849 5852 5861 5868 5858
5666 5676 5681 5694 5717 5744 5753 5750 5709 5698 5783 5788 5794 5810 5804 5802 5810 5818 5812 5807 5793 5785 5785 5813 5825 5848 5857 5834 5851 5844 5820 5764 5765 5763 5760 5812 5807 5808 5845 5850 5858 5854 5866 5868 5859
5665 5677 5692 5704 5721 5732 5733 5713 5687 5745 5760 5808 5803 5807 5795 5807 5806 5812 5805 5792 5812 5805 5785 5772 5772 5827 5852 5836 5819 5818 5808 5760 5751 5754 5772 5823 5798 5819 5858 5866 5872 5874 5871 5865 5838
5665 5687 5695 5715 5716 5718 5706 5681 5705 5743 5784 5788 5791 5783 5794 5810 5808 5806 5801 5797 5812 5813 5778 5779 5785 5846 5853 5855 5845 5817 5802 5829 5793 5804 5775 5788 5811 5835 5836 5820 5850 5865 5865 5855 5835
5652 5675 5700 5720 5718 5709 5689 5690 5723 5762 5780 5777 5754 5783 5782 5795 5797 5799 5794 5817 5814 5828 5825 5806 5773 5825 5850 5857 5851 5833 5841 5795 5785 5761 5755 5780 5785 5788 5805 5811 5835 5827 5848 5852 5845
5652 5671 5716 5721 5715 5691 5676 5700 5729 5762 5766 5758 5758 5761 5766 5773 5782 5787 5799 5823 5831 5829 5832 5817 5794 5808 5828 5824 5817 5819 5807 5816 5803 5788 5757 5746 5761 5809 5806 5813 5815 5800 5812 5846 5844
5658 5662 5711 5715 5677 5685 5686 5711 5732 5749 5762 5756 5764 5764 5764 5770 5766 5779 5795 5819 5842 5840 5813 5826 5799 5776 5799 5835 5850 5841 5824 5815 5768 5771 5778 5765 5767 5821 5795 5798 5804 5799 5763 5845 5847
5644 5668 5707 5706 5669 5681 5699 5713 5729 5735 5742 5741 5749 5764 5774 5762 5749 5776 5792 5820 5832 5827 5807 5817 5784 5761 5773 5802 5830 5822 5830 5828 5812 5799 5781 5760 5768 5786 5777 5767 5773 5768 5779 5831 5836
5630 5656 5678 5689 5693 5684 5688 5704 5716 5741 5732 5741 5741 5749 5755 5752 5764 5763 5777 5802 5817 5820 5820 5814 5788 5769 5746 5778 5814 5795 5819 5828 5808 5773 5782 5784 5777 5763 5766 5765 5750 5756 5805 5819 5822
5638 5654 5671 5660 5671 5683 5690 5702 5707 5714 5735 5739 5732 5734 5737 5732 5739 5751 5773 5780 5795 5795 5811 5800 5770 5785 5786 5804 5808 5807 5809 5815 5805 5798 5786 5785 5781 5768 5777 5784 5744 5800 5815 5815 5817
5634 5649 5668 5673 5692 5685 5688 5694 5700 5717 5720 5718 5716 5732 5734 5727 5735 5736 5758 5749 5759 5776 5774 5785 5759 5786 5771 5797 5800 5794 5809 5812 5813 5809 5799 5787 5780 5799 5789 5805 5803 5810 5802 5801 5803
5647 5655 5652 5668 5680 5684 5685 5691 5698 5709 5712 5723 5723 5719 5722 5723 5738 5747 5756 5761 5764 5764 5756 5761 5756 5753 5741 5777 5779 5761 5794 5807 5810 5812 5811 5775 5795 5787 5786 5799 5799 5798 5800 5807 5805